| time (UTC) | temp C | wind direction | speed KPH | gust KPH | rain 1hr cm | rain 24hr cm | rain mn cm | humidity % | barometer mb |
| 20260510210505 | 7 | 150 | 11.3 | 11.3 | 0.00 | 0.00 | 0.00 | 56 | 1014.9 |
| 20260510210004 | 7 | 150 | 11.3 | 11.3 | 0.00 | 0.00 | 0.00 | 56 | 1014.9 |
| 20260510205504 | 8 | 120 | 8.0 | 8.0 | 0.00 | 0.00 | 0.00 | 53 | 1014.9 |
| 20260510204504 | 8 | 120 | 8.0 | 8.0 | 0.00 | 0.00 | 0.00 | 53 | 1014.9 |
| 20260510203504 | 8 | 120 | 8.0 | 8.0 | 0.00 | 0.00 | 0.00 | 53 | 1014.9 |
| 20260510202007 | 8 | 120 | 8.0 | 8.0 | 0.00 | 0.00 | 0.00 | 53 | 1014.9 |
| 20260510201504 | 8 | 120 | 8.0 | 8.0 | 0.00 | 0.00 | 0.00 | 53 | 1014.9 |
| 20260510201007 | 8 | 120 | 8.0 | 8.0 | 0.00 | 0.00 | 0.00 | 53 | 1014.9 |
| 20260510200005 | 8 | 120 | 8.0 | 11.3 | 0.00 | 0.00 | 0.00 | 53 | 1014.9 |
| 20260510193007 | 10 | 100 | 11.3 | 11.3 | 0.00 | 0.00 | 0.00 | 49 | 1014.9 |
| 20260510192503 | 10 | 100 | 11.3 | 11.3 | 0.00 | 0.00 | 0.00 | 49 | 1014.9 |
| 20260510192007 | 10 | 100 | 11.3 | 11.3 | 0.00 | 0.00 | 0.00 | 49 | 1014.9 |
| 20260510191504 | 10 | 100 | 11.3 | 11.3 | 0.00 | 0.00 | 0.00 | 49 | 1014.9 |
| 20260510190504 | 10 | 100 | 11.3 | 12.9 | 0.00 | 0.00 | 0.00 | 49 | 1014.9 |
| 20260510190005 | 10 | 100 | 11.3 | 12.9 | 0.00 | 0.00 | 0.00 | 49 | 1014.9 |
| 20260510185503 | 11 | 50 | 12.9 | 12.9 | 0.00 | 0.00 | 0.00 | 46 | 1015.9 |
| 20260510185006 | 11 | 50 | 12.9 | 12.9 | 0.00 | 0.00 | 0.00 | 46 | 1015.9 |
| 20260510184007 | 11 | 50 | 12.9 | 12.9 | 0.00 | 0.00 | 0.00 | 46 | 1015.9 |
| 20260510182504 | 11 | 50 | 12.9 | 12.9 | 0.00 | 0.00 | 0.00 | 46 | 1015.9 |
| 20260510181007 | 11 | 50 | 12.9 | 12.9 | 0.00 | 0.00 | 0.00 | 46 | 1015.9 |
| 20260510180505 | 11 | 50 | 12.9 | 19.3 | 0.00 | 0.00 | 0.00 | 46 | 1015.9 |
| 20260510174006 | 12 | 80 | 19.3 | 19.3 | 0.00 | 0.00 | 0.00 | 43 | 1015.9 |
| 20260510173007 | 12 | 80 | 19.3 | 19.3 | 0.00 | 0.00 | 0.00 | 43 | 1015.9 |
| 20260510171504 | 12 | 80 | 19.3 | 19.3 | 0.00 | 0.00 | 0.00 | 43 | 1015.9 |
| 20260510171007 | 12 | 80 | 19.3 | 19.3 | 0.00 | 0.00 | 0.00 | 43 | 1015.9 |
| 20260510170004 | 12 | 80 | 19.3 | 19.3 | 0.00 | 0.00 | 0.00 | 43 | 1015.9 |
| 20260510163505 | 13 | 40 | 14.5 | 14.5 | 0.00 | 0.00 | 0.00 | 38 | 1016.9 |
| 20260510162504 | 13 | 40 | 14.5 | 14.5 | 0.00 | 0.00 | 0.00 | 38 | 1016.9 |
| 20260510161007 | 13 | 40 | 14.5 | 14.5 | 0.00 | 0.00 | 0.00 | 38 | 1016.9 |
| 20260510160004 | 13 | 40 | 14.5 | 19.3 | 0.00 | 0.00 | 0.00 | 38 | 1016.9 |
| 20260510154504 | 12 | 40 | 19.3 | 19.3 | 0.00 | 0.00 | 0.00 | 40 | 1017.9 |
| 20260510153008 | 12 | 40 | 19.3 | 19.3 | 0.00 | 0.00 | 0.00 | 40 | 1017.9 |
| 20260510152505 | 12 | 40 | 19.3 | 19.3 | 0.00 | 0.00 | 0.00 | 40 | 1017.9 |
| 20260510152007 | 12 | 40 | 19.3 | 19.3 | 0.00 | 0.00 | 0.00 | 40 | 1017.9 |
| 20260510151007 | 12 | 40 | 19.3 | 19.3 | 0.00 | 0.00 | 0.00 | 40 | 1017.9 |
| 20260510150503 | 12 | 40 | 19.3 | 45.1 | 0.00 | 0.00 | 0.00 | 40 | 1017.9 |
| 20260510150004 | 12 | 40 | 19.3 | 45.1 | 0.00 | 0.00 | 0.00 | 40 | 1017.9 |
| 20260510145503 | 12 | 40 | 20.9 | 45.1 | 0.00 | 0.00 | 0.00 | 40 | 1017.9 |
| 20260510145006 | 12 | 40 | 20.9 | 45.1 | 0.00 | 0.00 | 0.00 | 40 | 1017.9 |
| 20260510143505 | 12 | 40 | 20.9 | 45.1 | 0.00 | 0.00 | 0.00 | 40 | 1017.9 |
| 20260510142008 | 12 | 40 | 20.9 | 45.1 | 0.00 | 0.00 | 0.00 | 40 | 1017.9 |
| 20260510141503 | 12 | 40 | 20.9 | 45.1 | 0.00 | 0.00 | 0.00 | 40 | 1017.9 |
| 20260510141006 | 12 | 40 | 20.9 | 45.1 | 0.00 | 0.00 | 0.00 | 40 | 1017.9 |
| 20260510140504 | 12 | 40 | 20.9 | 45.1 | 0.00 | 0.00 | 0.00 | 40 | 1017.9 |
| 20260510135007 | 12 | 40 | 19.3 | 19.3 | 0.00 | 0.00 | 0.00 | 43 | 1019.0 |
| 20260510134007 | 12 | 40 | 19.3 | 19.3 | 0.00 | 0.00 | 0.00 | 43 | 1019.0 |
| 20260510130503 | 12 | 40 | 19.3 | 22.5 | 0.00 | 0.00 | 0.00 | 43 | 1019.0 |
| 20260510125504 | 12 | 60 | 22.5 | 22.5 | 0.00 | 0.00 | 0.00 | 43 | 1019.0 |
| 20260510125007 | 12 | 60 | 22.5 | 22.5 | 0.00 | 0.00 | 0.00 | 43 | 1019.0 |
| 20260510123007 | 12 | 60 | 22.5 | 22.5 | 0.00 | 0.00 | 0.00 | 43 | 1019.0 |
| 20260510113008 | 11 | 30 | 20.9 | 20.9 | 0.00 | 0.00 | 0.00 | 53 | 1020.0 |
| 20260510111504 | 11 | 30 | 20.9 | 20.9 | 0.00 | 0.00 | 0.00 | 53 | 1020.0 |
| 20260510105504 | 11 | 50 | 24.1 | 24.1 | 0.00 | 0.00 | 0.00 | 53 | 1020.0 |
| 20260510103504 | 11 | 50 | 24.1 | 24.1 | 0.00 | 0.00 | 0.00 | 53 | 1020.0 |
| 20260510103006 | 11 | 50 | 24.1 | 24.1 | 0.00 | 0.00 | 0.00 | 53 | 1020.0 |
| 20260510095007 | 8 | 30 | 20.9 | 20.9 | 0.00 | 0.00 | 0.00 | 66 | 1021.0 |
| 20260510094504 | 8 | 30 | 20.9 | 20.9 | 0.00 | 0.00 | 0.00 | 66 | 1021.0 |
| 20260510092504 | 8 | 30 | 20.9 | 20.9 | 0.00 | 0.00 | 0.00 | 66 | 1021.0 |
| 20260510090004 | 8 | 30 | 20.9 | 22.5 | 0.00 | 0.00 | 0.00 | 66 | 1021.0 |
| 20260510085007 | 7 | 30 | 22.5 | 22.5 | 0.00 | 0.00 | 0.00 | 75 | 1021.0 |
| 20260510084007 | 7 | 30 | 22.5 | 22.5 | 0.00 | 0.00 | 0.00 | 75 | 1021.0 |
| 20260510082503 | 7 | 30 | 22.5 | 22.5 | 0.00 | 0.00 | 0.00 | 75 | 1021.0 |
| 20260510082008 | 7 | 30 | 22.5 | 22.5 | 0.00 | 0.00 | 0.00 | 75 | 1021.0 |
| 20260510080504 | 7 | 30 | 22.5 | 22.5 | 0.00 | 0.00 | 0.00 | 75 | 1021.0 |
| 20260510073007 | 7 | 40 | 22.5 | 22.5 | 0.00 | 0.00 | 0.00 | 75 | 1021.0 |
| 20260510070504 | 7 | 40 | 22.5 | 22.5 | 0.00 | 0.00 | 0.00 | 75 | 1021.0 |
| 20260510063504 | 10 | 20 | 20.9 | 20.9 | 0.00 | 0.00 | 0.00 | 87 | 1020.0 |
| 20260510063007 | 10 | 20 | 20.9 | 20.9 | 0.00 | 0.00 | 0.00 | 87 | 1020.0 |
| 20260510060504 | 10 | 20 | 20.9 | 20.9 | 0.00 | 0.00 | 0.00 | 87 | 1020.0 |